Location: Roland
(31.1349°N, 85.4372°W)
Time: 07:49:49
(UTC+00:00)

Vanguard 2 Rocket - Pass Details

Date: 17 April 2021
Orbit: 554 x 3326 km, 32.9° (Epoch: 16 May)

Event Time Altitude Azimuth Distance (km) Brightness Sun altitude
Rises 03:22:16 0° 285° (WNW) 6,305 11.9 -36.6°
Reaches altitude 10° 03:28:01 10° 274° (W) 4,784 11.0 -37.5°
Maximum altitude 03:37:06 24° 228° (SW) 2,871 9.3 -38.8°
Enters shadow 03:37:08 24° 227° (SW) 2,867 9.3 -38.8°
